Volver al catálogo

HULIANWANG DIGUI-84

ActivoComunicacionesPO
NORAD 65819·PAYLOAD·🇨🇳 China

Lanzado Sep 27, 2025 desde Taiyuan Satellite Launch Center

Loading…

Próximos Pases (próximas 24 horas)

TLE

ActualizadoSource: Space-Track

Época: Sep 14, 2026, 07:06 UTC

1 65819U 25220C   26257.29620979  .00000038  00000-0  54195-4 0  9995
2 65819  86.4991  13.6199 0001478  85.5657 274.5646 13.24410844 46716

Sigue HULIANWANG DIGUI-84 en tiempo real con AllMySat

Download on the App Store